Wind_Speed
13 12 13 13 13 13 12 12 12 12 12 11 11 11 10 10 9 8 8 8 7 7 7 8 8 9 11 12 12 12 13 13 13 13 12 13 12 12 13 14 13 13 13 13 13 13 13 14 14 15 15 16 16 17 17 18 19 19 19 19 19 19 20 21 18 17 24 27 26 28 30 31 30 28 29 30 29 27 26 26 24 24 25 26 31
13 13 14 13 13 13 12 12 12 12 12 11 11 11 10 9 9 9 8 8 8 7 7 8 8 10 11 12 13 13 14 13 13 13 13 13 12 12 13 13 13 13 13 13 14 13 13 14 15 15 16 17 17 17 17 19 20 20 20 19 20 20 20 22 22 20 23 28 28 28 29 29 29 29 29 30 31 29 28 28 24 24 27 28 29
14 13 14 13 12 12 12 12 12 12 12 11 11 10 10 9 8 8 8 8 8 8 8 8 9 10 11 12 13 14 14 14 14 13 13 13 12 12 13 13 12 13 13 13 14 14 14 14 15 16 17 17 17 17 18 19 20 20 21 20 21 22 22 22 23 23 25 28 29 28 28 29 29 30 29 28 30 30 29 29 27 26 27 28 27
14 14 14 13 12 12 12 12 12 11 11 11 11 10 9 9 9 8 8 8 8 8 8 9 9 10 11 12 14 14 15 15 14 14 14 13 12 12 12 12 12 12 12 13 13 14 14 15 16 17 18 18 18 18 19 20 21 20 21 22 22 23 23 22 23 25 26 27 28 28 28 29 29 29 30 29 29 29 28 28 29 28 27 26 24
14 14 14 14 13 13 13 12 12 12 11 11 10 10 9 9 8 8 8 8 8 8 8 9 10 11 12 13 14 15 15 16 16 15 15 14 12 11 12 13 12 12 12 12 13 14 15 15 16 18 18 18 19 20 21 22 23 22 23 24 24 24 24 24 24 25 26 28 29 29 29 29 29 28 28 29 29 29 28 28 29 31 28 24 22
15 15 14 14 14 14 13 12 12 12 11 11 10 9 9 8 8 8 8 8 8 9 9 9 10 11 12 13 14 15 15 17 18 17 16 15 13 11 12 13 12 12 13 13 13 14 15 16 16 17 18 19 20 22 23 24 24 25 26 26 25 25 25 25 25 25 26 28 28 29 29 28 29 29 28 27 28 29 29 28 28 30 29 23 22
15 15 14 14 14 13 13 12 12 11 11 10 10 9 9 8 8 8 8 9 9 9 9 9 10 11 11 12 14 15 16 18 19 19 17 15 14 12 12 12 12 12 13 13 13 14 15 16 16 17 18 19 22 23 24 25 26 27 28 27 26 26 26 25 25 25 25 26 27 28 28 27 28 29 29 29 28 27 26 26 26 30 32 27 23
16 15 15 15 14 13 13 12 12 11 11 11 10 10 9 9 9 9 9 9 9 9 9 9 10 10 11 12 13 15 17 19 21 20 19 17 14 12 12 12 12 12 13 13 13 15 16 16 16 17 18 19 22 24 23 25 27 29 28 28 27 27 26 25 25 25 25 25 26 27 28 27 27 28 29 28 26 25 24 25 26 28 30 29 27
16 16 15 14 14 13 13 12 12 11 11 11 11 10 10 9 9 9 9 9 9 9 9 9 10 11 11 12 14 16 18 21 20 19 19 19 15 12 11 12 12 12 13 13 13 15 16 16 17 18 18 20 23 23 24 27 28 29 29 29 28 27 27 26 26 26 25 25 26 27 27 26 26 27 28 27 26 27 28 28 27 27 27 28 29
16 16 15 15 14 13 13 12 12 12 12 11 11 10 10 10 9 9 9 9 9 9 9 9 10 11 12 13 14 15 19 22 19 15 16 17 15 11 11 12 12 12 13 13 14 15 16 17 18 18 19 22 24 24 27 30 30 29 28 28 28 28 28 27 26 26 26 25 26 26 26 26 26 27 28 29 30 29 29 28 26 27 28 26 26
17 16 16 15 14 14 13 13 13 12 12 12 11 11 10 10 10 10 10 9 9 9 9 10 10 11 12 14 14 15 19 22 18 14 14 15 14 11 10 11 11 11 13 13 13 16 17 17 19 20 21 24 25 25 28 31 30 30 28 28 28 28 27 27 27 27 27 26 26 27 26 27 29 29 29 30 31 30 28 27 27 27 26 21 19
17 17 16 15 15 14 14 14 13 13 12 12 11 11 11 10 10 10 10 10 9 9 10 9 9 10 11 14 15 14 19 22 18 13 13 13 13 11 10 10 11 11 12 13 14 16 17 18 19 21 23 24 24 26 30 31 30 30 29 29 29 28 27 28 28 29 28 26 27 27 27 29 30 29 29 30 31 31 30 29 28 27 27 22 18
17 17 16 15 15 15 14 14 14 13 12 12 12 11 11 11 10 10 10 10 10 10 10 9 9 9 10 12 14 15 18 21 19 14 12 12 13 12 10 10 11 12 12 13 15 16 16 18 20 21 23 24 24 27 30 31 30 29 29 29 30 30 30 29 28 28 28 27 27 27 28 29 30 30 30 31 33 33 31 30 28 26 27 27 24
18 17 16 16 15 15 15 14 14 13 13 12 12 12 11 11 10 10 9 9 10 10 10 10 9 9 8 10 12 14 18 21 21 16 13 12 13 12 11 10 10 12 13 13 14 15 16 18 20 22 23 22 25 30 32 32 30 28 28 30 31 32 31 29 27 27 27 27 27 29 31 31 32 33 33 33 34 33 31 31 31 30 31 32 33
18 17 17 16 15 15 15 15 14 13 13 12 12 12 11 10 10 9 9 9 9 9 10 10 9 8 8 8 10 13 18 20 21 19 15 13 13 13 11 10 11 12 13 14 15 15 16 17 19 21 21 21 26 32 35 34 31 28 29 31 31 31 30 28 28 28 28 28 29 32 34 35 36 37 37 36 36 35 35 37 38 37 36 36 36
18 17 17 16 16 16 15 15 14 13 13 13 12 11 10 10 9 9 9 9 9 9 9 9 10 9 8 7 8 11 16 19 20 20 18 15 14 15 13 11 12 12 12 14 15 14 15 16 17 19 19 21 27 32 34 34 30 28 30 32 31 31 30 28 28 28 28 29 31 33 35 36 38 38 38 37 36 37 39 39 37 35 31 28 28
18 18 17 16 16 16 15 15 14 13 13 12 12 11 10 9 9 9 8 8 8 9 9 9 9 10 9 8 7 8 12 18 19 20 20 18 16 15 14 13 13 13 13 14 15 14 14 14 15 19 21 24 29 31 32 32 29 28 30 32 32 33 32 31 29 28 29 31 32 32 33 35 36 36 35 33 31 32 34 32 29 26 22 17 17
19 18 17 17 16 15 15 14 14 13 12 12 11 10 10 9 8 8 8 8 8 8 8 8 8 8 9 10 9 7 9 15 19 19 18 19 18 16 15 15 14 14 14 14 15 15 15 14 16 21 25 28 30 31 31 30 27 26 29 32 31 32 35 35 31 28 29 31 31 31 32 32 33 34 32 30 28 28 28 28 26 23 19 15 14
19 18 18 17 16 15 14 14 13 13 12 11 10 10 9 8 8 7 8 8 8 7 7 7 7 7 7 8 10 9 8 12 19 19 16 18 20 17 15 15 15 14 14 15 15 16 16 16 18 24 29 29 30 31 30 27 24 24 27 30 28 31 40 41 36 34 34 34 36 36 34 33 33 33 32 30 28 26 25 27 27 26 22 19 18
19 19 18 17 16 15 14 13 13 12 12 11 10 9 9 8 7 7 7 7 7 7 6 6 6 6 6 5 6 8 8 10 17 19 16 16 20 19 15 15 16 16 15 16 16 16 18 18 19 25 30 29 29 33 31 26 22 23 26 28 27 33 41 40 36 38 39 38 41 39 35 36 37 35 33 31 29 27 26 26 26 27 25 23 22
20 19 18 17 16 15 14 13 12 12 11 10 9 9 8 8 7 7 7 7 6 5 4 4 5 5 5 5 4 5 7 9 13 18 18 17 20 20 16 15 17 17 16 17 17 16 18 20 20 25 30 28 28 32 32 26 23 23 26 28 29 33 38 36 34 37 37 38 41 39 36 38 39 36 34 33 31 30 30 28 27 26 25 25 24
20 19 18 17 16 15 14 13 12 11 10 9 9 8 8 7 6 6 7 7 6 5 4 4 4 4 3 5 5 4 5 8 12 17 19 19 19 20 18 16 18 18 16 16 18 17 17 20 22 25 29 28 26 30 30 27 25 26 27 29 31 32 34 34 35 36 35 36 39 39 37 39 40 39 37 36 36 35 33 31 30 27 24 23 23
20 19 18 17 16 15 14 13 11 10 10 9 9 8 7 7 6 5 5 5 5 4 4 3 4 4 4 4 6 6 5 7 12 16 20 20 19 20 19 18 19 19 16 16 18 17 17 20 22 23 28 29 27 28 29 27 27 28 29 31 32 31 32 34 34 34 35 36 37 37 38 39 39 38 37 38 39 38 34 33 32 28 24 21 18
20 19 18 17 16 15 14 12 11 10 10 9 8 7 7 6 5 5 4 3 4 3 3 3 3 4 4 4 5 6 6 7 11 15 18 19 19 19 20 18 18 19 17 16 16 17 18 22 23 23 26 29 28 27 28 27 26 28 30 32 32 31 32 35 34 33 33 33 34 36 38 40 39 37 38 40 39 36 34 34 32 28 24 20 14
20 19 18 17 16 15 14 12 11 11 10 9 8 7 6 5 5 4 4 3 3 3 3 3 3 4 5 5 4 5 7 8 10 13 16 17 17 19 19 19 19 19 16 14 16 18 19 22 23 22 24 27 27 27 27 27 26 27 30 32 31 31 32 35 36 34 31 31 33 36 39 42 42 39 39 39 38 36 35 36 34 31 28 22 16
19 18 17 17 16 15 14 12 11 11 9 8 8 7 5 5 4 4 3 3 3 3 3 3 3 3 4 5 5 4 6 8 10 12 14 15 17 18 19 19 19 18 15 14 16 19 19 20 21 22 23 24 25 26 27 27 27 27 29 30 30 31 32 34 34 33 30 31 34 36 39 42 42 40 39 39 38 38 37 36 34 33 31 25 18
19 18 17 16 15 14 14 12 12 11 9 8 8 7 5 5 4 3 3 3 2 2 2 3 3 4 4 5 5 5 6 8 10 12 13 14 16 17 18 19 19 18 15 15 18 21 21 20 19 21 22 23 24 25 26 27 27 27 28 29 30 31 32 32 32 30 30 32 34 36 40 42 41 40 40 38 38 39 38 34 31 31 32 26 19
18 17 17 16 15 14 13 12 12 11 9 9 8 6 5 4 4 3 3 3 2 2 2 3 3 4 4 5 6 6 6 8 10 11 12 14 15 16 17 17 18 17 16 17 22 24 22 20 19 20 22 23 23 24 25 26 27 28 28 28 29 30 31 31 30 30 31 33 34 36 41 42 40 39 38 36 36 38 38 34 29 29 31 27 22
17 17 17 15 14 14 13 13 12 10 10 9 7 6 5 4 4 5 4 2 2 3 3 4 3 3 4 4 5 6 6 8 10 11 12 13 14 15 16 16 17 17 17 20 24 24 20 18 19 20 22 23 23 23 25 26 26 27 27 28 28 29 30 30 30 30 33 34 34 36 38 39 39 38 37 35 35 37 37 33 29 29 30 28 25
17 17 16 15 14 14 13 13 12 10 10 10 7 6 5 4 4 6 5 3 3 3 3 3 3 3 3 3 4 5 6 8 10 11 12 13 14 14 14 14 16 17 17 20 24 23 18 17 19 19 20 21 21 22 25 25 26 27 27 27 28 28 28 29 30 31 33 33 34 35 36 37 39 39 37 36 36 36 37 34 30 29 29 28 27
17 17 16 15 15 14 13 13 12 10 10 10 9 8 8 7 6 5 4 3 3 3 3 3 3 3 3 3 4 6 8 9 10 11 12 13 14 14 13 12 14 16 17 20 25 22 16 16 18 18 19 20 20 21 23 24 25 26 25 26 28 28 28 29 31 31 32 32 32 34 34 35 38 39 37 36 36 35 36 37 33 30 29 29 29
17 16 15 14 15 14 12 12 12 10 10 10 10 10 11 11 10 9 7 5 4 4 4 3 2 3 3 3 3 4 7 9 10 11 12 13 14 14 12 12 13 15 16 19 21 18 15 17 18 18 19 20 20 21 22 22 23 24 24 26 28 27 28 30 31 31 31 31 32 34 34 34 37 38 37 36 36 35 35 36 34 31 29 29 30
16 16 15 14 15 14 12 11 12 10 10 10 10 10 10 11 12 12 11 9 7 6 6 6 4 3 1 3 4 4 6 8 10 11 11 13 14 13 12 13 14 14 14 15 15 15 16 16 17 18 19 19 20 21 21 21 22 23 23 25 26 26 27 29 30 30 31 30 31 35 35 33 35 37 37 36 36 35 34 33 33 32 29 29 30
15 15 16 15 16 15 12 11 12 11 10 10 9 9 9 8 8 10 12 13 13 13 12 11 9 6 3 1 3 5 5 7 9 9 10 12 13 13 14 16 15 13 11 10 11 14 16 16 17 18 18 19 19 20 20 21 22 22 23 24 24 25 27 28 28 30 31 29 30 34 35 33 34 36 35 35 35 35 34 33 33 33 30 28 29
16 15 15 15 15 15 13 12 11 11 10 10 10 9 8 7 5 6 7 9 10 12 14 15 15 10 6 4 4 4 5 7 8 8 8 10 11 13 17 18 14 12 11 10 11 14 15 15 16 17 17 18 19 19 20 21 21 21 22 24 24 25 26 27 27 29 30 28 30 33 33 33 34 34 34 33 33 33 35 34 33 32 31 28 28
16 15 16 15 15 14 13 12 11 11 11 10 10 9 8 7 7 7 6 6 6 6 7 11 14 12 8 6 6 5 4 6 7 7 7 8 9 12 16 17 12 12 12 11 12 14 14 14 15 16 17 18 19 19 19 20 21 21 22 23 23 24 26 26 26 27 28 27 28 31 31 31 32 33 33 33 31 31 34 35 32 32 33 31 28
16 15 16 16 15 13 13 12 11 11 10 9 9 9 8 8 8 7 6 6 6 5 5 5 8 11 12 12 10 8 6 7 8 8 9 9 9 11 15 14 11 11 12 11 12 13 13 14 15 15 16 17 18 18 18 19 20 20 21 22 22 23 26 26 26 27 27 26 27 29 30 30 32 32 32 32 31 30 34 36 34 33 34 32 29
16 15 17 18 16 13 13 12 11 11 10 10 9 9 9 9 8 8 7 6 5 5 6 6 5 7 10 12 12 10 8 9 11 12 12 12 11 12 13 11 9 10 10 10 11 12 12 13 14 15 15 16 16 17 18 18 19 20 20 21 21 23 25 26 25 26 27 26 26 28 29 29 31 31 30 31 31 29 30 34 35 33 32 32 29
15 14 16 19 17 14 12 12 12 11 12 11 10 9 9 9 8 8 8 8 7 7 7 7 7 7 7 6 9 9 9 10 10 11 10 9 9 9 9 9 9 9 9 10 10 10 11 12 13 13 14 15 16 16 17 17 18 19 19 20 21 22 23 24 25 26 26 26 26 27 28 28 29 29 29 29 30 29 27 28 31 32 31 30 29
15 13 15 18 18 14 12 12 12 12 12 12 11 10 10 9 9 9 9 8 8 8 8 7 8 8 6 4 4 4 7 8 9 9 8 7 7 8 8 8 8 8 8 9 9 9 10 11 12 12 13 14 15 15 16 16 17 17 18 19 20 21 21 22 23 25 25 25 25 26 27 27 27 27 28 28 29 29 28 26 26 28 29 29 29
16 14 16 18 17 15 13 13 12 12 13 12 12 12 11 11 11 10 10 9 9 9 9 9 9 8 7 7 5 5 7 9 10 10 8 8 7 8 8 8 8 8 8 8 9 9 9 10 11 11 12 13 14 14 14 15 16 17 17 18 18 20 20 21 22 23 24 24 24 25 26 26 25 25 26 27 27 27 28 26 24 24 25 26 27
16 15 17 18 17 16 15 14 13 12 12 12 12 12 11 11 11 11 11 11 10 10 9 10 10 9 9 10 9 7 7 9 11 10 9 9 8 7 7 8 8 7 7 8 8 8 8 9 10 10 11 12 13 13 13 13 14 15 16 17 17 18 19 19 21 22 23 23 23 24 25 25 24 23 24 25 24 24 25 25 24 24 23 22 23
16 14 15 16 17 17 16 15 14 14 13 13 12 12 12 12 12 12 12 12 12 11 11 11 11 10 9 11 10 8 7 9 12 11 10 9 8 7 7 8 7 6 7 8 8 7 8 8 9 9 10 10 11 12 12 12 13 14 15 16 16 17 18 18 19 20 21 22 23 23 23 23 23 22 23 23 22 22 22 23 23 23 23 23 21
16 15 14 14 16 17 17 16 15 14 14 13 13 12 12 13 12 12 13 13 13 13 13 12 12 11 10 10 11 9 10 11 12 11 10 9 8 8 9 8 7 7 7 8 7 7 7 7 8 9 9 9 10 11 11 10 11 12 12 14 15 16 17 17 18 18 20 21 21 21 21 21 21 21 22 21 20 20 20 21 21 21 21 22 22
15 15 15 14 14 15 17 17 16 15 14 14 13 13 14 14 14 14 13 13 13 13 13 13 13 13 12 12 12 12 12 12 11 10 10 9 10 10 9 8 8 7 7 8 8 7 7 7 8 9 9 9 9 10 10 9 9 9 10 11 13 15 16 16 16 16 17 19 19 19 20 20 19 19 21 21 19 18 18 18 19 19 19 19 20
16 15 15 15 14 14 15 16 16 16 15 14 14 14 14 15 15 15 15 14 14 14 14 14 14 14 14 14 14 13 13 12 12 11 11 10 10 10 9 9 9 8 8 8 9 8 8 9 9 9 9 9 9 9 10 9 8 8 8 8 10 12 14 16 16 15 15 16 16 17 18 18 17 18 20 19 18 17 17 16 17 18 17 16 17
16 15 15 15 15 15 15 15 15 16 15 15 15 15 15 15 15 15 16 16 15 15 15 14 14 14 15 15 15 15 14 14 13 13 12 12 11 11 10 10 10 9 9 9 9 9 9 9 9 9 9 9 9 9 9 9 8 7 6 6 8 11 14 16 17 15 14 14 14 15 16 16 16 16 18 18 17 17 17 15 14 15 15 14 13
15 15 15 15 15 15 15 16 16 16 16 16 15 15 15 15 15 15 15 15 16 16 16 16 16 15 15 15 15 15 15 14 14 13 13 12 12 11 11 11 11 11 11 11 11 10 11 11 10 10 10 10 10 10 9 9 8 7 5 4 7 11 13 14 15 15 14 13 13 13 14 14 15 15 16 16 16 16 16 16 14 12 12 13 12
16 15 15 15 15 15 16 16 16 17 17 17 16 16 16 16 16 16 16 16 15 16 16 17 17 17 16 16 16 15 15 15 15 14 13 13 13 13 13 13 13 13 13 13 13 13 12 12 12 12 12 11 11 10 10 10 9 7 5 5 8 11 11 11 13 14 14 13 13 12 13 13 13 14 14 15 15 14 15 16 16 12 10 11 13
18 16 15 15 15 16 16 16 16 17 17 17 17 17 17 17 17 17 17 17 17 16 16 17 17 17 17 16 16 16 16 15 15 14 14 15 15 15 15 16 16 15 15 15 15 15 14 13 13 13 13 13 12 12 11 11 11 9 8 9 11 12 10 9 10 12 13 12 11 11 12 12 12 13 13 13 14 13 13 14 15 13 10 9 10
20 18 17 16 15 16 17 17 17 18 17 17 17 17 17 17 18 18 18 18 18 18 17 17 17 17 17 17 17 16 16 16 16 15 16 16 16 16 17 17 17 17 17 17 16 16 16 15 14 14 14 14 14 14 13 12 12 12 13 14 14 13 11 9 9 10 11 11 9 9 10 12 12 12 12 12 13 13 13 13 13 12 10 9 9
Wind_Direction
114 111 108 108 107 105 103 102 101 101 100 97 94 92 89 89 87 84 84 79 78 75 69 66 61 56 53 47 44 40 35 32 28 25 24 22 20 16 13 13 13 13 11 10 11 8 4 5 6 4 0 357 353 350 348 346 343 338 335 332 327 325 323 317 310 307 306 307 307 307 308 309 307 307 309 308 306 302 298 293 283 275 279 275 263
118 115 112 111 109 107 104 101 100 98 97 95 93 92 88 87 88 86 83 78 78 76 70 67 63 59 55 48 43 39 34 29 24 21 19 15 15 14 11 11 12 12 10 10 10 8 6 5 4 4 1 357 355 353 350 347 344 339 336 334 328 324 323 318 312 308 307 308 308 307 308 308 306 306 308 307 306 305 300 296 286 273 278 283 272
120 117 116 113 110 108 104 101 101 98 96 94 92 91 89 88 88 86 84 80 77 74 71 69 65 60 55 49 43 37 32 27 21 18 14 10 10 11 10 10 11 10 10 11 10 7 7 6 4 4 1 358 357 355 351 347 343 338 335 332 327 323 321 318 313 308 306 306 307 307 308 307 306 305 306 305 305 305 302 299 293 282 280 285 281
121 119 116 113 110 107 105 103 102 99 95 94 92 92 90 88 87 85 83 81 77 75 73 69 66 60 55 49 42 35 30 24 19 15 11 8 7 9 10 10 11 12 11 10 10 8 7 6 6 4 0 359 357 353 350 346 342 338 334 329 325 321 318 316 312 308 306 304 305 306 307 306 305 305 307 306 305 304 302 301 299 294 285 281 282
122 120 116 114 111 107 105 103 101 98 96 95 93 93 92 90 88 84 82 80 76 74 72 68 65 61 55 49 41 34 28 22 16 12 9 6 5 8 11 11 12 14 10 10 11 9 8 7 5 4 1 358 356 352 348 345 341 337 332 329 325 320 318 314 311 308 306 304 305 306 307 307 305 306 308 308 308 308 306 303 301 300 292 278 276
124 121 118 115 112 109 107 104 101 99 97 96 94 94 93 90 88 83 80 77 75 72 70 67 65 62 57 49 41 33 27 20 14 9 7 6 6 9 11 10 14 15 10 11 12 10 9 8 5 5 3 357 354 350 346 343 340 335 331 327 324 321 318 314 312 310 307 305 306 307 308 309 308 308 309 309 309 309 307 305 305 305 302 286 273
125 122 120 117 113 110 108 105 103 101 99 99 97 95 93 90 87 82 77 75 73 72 72 69 66 62 57 49 40 32 25 19 13 10 9 6 5 8 11 11 14 14 10 11 13 11 9 7 5 4 1 356 352 347 343 341 336 332 330 326 324 322 318 316 315 312 309 307 306 307 308 309 309 308 309 309 308 306 307 311 312 313 312 303 287
126 122 120 117 113 112 110 107 106 104 103 102 99 97 95 91 87 82 77 73 70 70 72 72 69 63 57 49 40 32 25 19 15 15 13 8 2 4 11 12 10 13 12 10 11 11 8 5 3 0 356 352 349 345 343 341 335 330 328 326 324 322 319 318 316 313 310 307 306 307 307 308 309 308 308 311 310 308 310 311 309 309 310 308 302
126 124 122 118 116 116 113 111 109 108 107 104 101 100 96 92 89 84 78 73 71 71 72 72 71 64 57 49 39 33 26 19 18 20 16 11 6 3 9 12 9 11 12 9 8 8 6 3 359 355 352 350 349 347 343 340 335 329 327 326 325 322 319 317 316 313 311 309 307 307 306 306 307 307 308 308 308 307 308 306 303 304 306 305 303
127 125 123 121 122 120 116 115 113 111 110 106 103 101 96 93 89 84 79 76 73 74 74 73 72 64 56 48 40 34 26 19 20 27 23 18 11 1 3 10 10 11 10 7 7 5 1 360 356 353 352 350 349 347 342 338 334 330 328 327 324 320 317 316 316 314 313 310 308 307 305 303 303 303 302 302 303 303 303 304 305 306 309 306 301
129 128 126 125 125 122 119 119 115 112 111 107 105 102 98 96 91 85 82 78 76 76 75 74 72 66 58 49 43 36 26 19 21 29 29 26 18 4 2 9 11 12 9 5 5 3 359 358 356 354 353 351 349 348 344 340 336 334 334 333 329 323 319 318 316 314 311 308 307 306 303 301 301 300 299 298 299 300 300 303 304 304 304 302 298
131 130 129 128 127 124 122 120 116 114 112 108 106 104 102 99 94 89 85 80 78 76 73 73 72 69 64 53 45 37 26 21 23 28 28 28 23 11 5 10 10 8 7 5 4 3 360 357 357 356 354 353 353 352 348 343 340 339 338 337 335 330 325 321 316 311 308 306 306 304 301 300 300 299 298 297 298 299 299 298 297 296 295 291 289
134 132 131 130 127 125 124 120 116 114 111 110 110 107 104 102 96 93 89 84 80 76 72 72 70 69 69 59 49 39 27 21 23 26 25 25 25 18 9 10 10 8 6 5 4 4 2 358 358 357 355 356 357 354 349 344 341 341 341 339 337 332 328 325 320 316 313 310 307 303 301 301 299 298 296 295 296 296 296 294 291 290 289 286 287
136 134 132 130 128 126 124 121 117 115 114 113 112 109 106 103 100 98 94 87 83 79 73 71 68 67 71 67 55 40 28 23 24 27 26 24 26 25 16 9 10 9 7 5 5 6 4 359 357 357 356 358 359 356 351 346 342 342 343 341 338 334 332 330 327 324 319 314 308 304 303 301 299 297 296 294 292 290 289 290 289 287 286 285 284
137 135 133 131 130 128 125 122 119 118 117 115 112 109 106 105 103 99 95 90 86 82 76 71 68 66 66 69 63 43 28 24 26 27 26 22 22 23 16 6 7 9 7 6 4 5 4 360 356 357 358 357 357 356 354 349 345 344 344 342 339 337 335 333 330 325 319 315 310 306 305 304 301 299 298 294 291 289 288 287 285 284 284 284 282
138 137 135 133 132 129 128 126 123 121 120 117 114 110 108 106 104 101 98 94 89 85 81 74 68 64 61 62 66 48 28 21 24 27 25 21 19 18 14 8 5 7 8 5 2 5 9 6 1 1 359 353 351 353 353 351 347 345 345 344 341 338 336 333 330 325 320 317 314 312 310 310 308 305 303 300 296 295 296 291 285 282 280 279 279
139 139 137 135 134 132 131 129 127 124 122 119 116 113 112 108 105 104 102 98 94 89 86 81 72 66 60 51 55 54 29 17 19 23 23 24 21 14 11 10 3 2 7 3 359 6 11 9 11 13 4 352 348 350 351 350 348 347 348 346 344 341 338 334 332 330 328 322 318 317 317 317 316 312 310 308 303 301 300 292 284 282 277 271 276
142 142 139 138 136 135 133 132 129 127 124 121 118 116 114 111 106 105 102 98 98 93 89 89 80 72 66 53 47 53 30 12 13 16 17 21 23 13 7 10 3 358 3 0 357 3 2 357 6 12 5 354 350 350 350 348 344 344 348 347 344 342 340 336 332 330 329 327 325 323 322 323 323 321 318 316 312 307 300 292 289 288 279 269 272
145 143 140 139 137 135 134 132 130 129 125 123 122 118 116 116 112 111 108 102 100 96 89 88 82 75 74 62 49 50 38 12 10 13 12 17 21 15 6 7 3 354 354 356 355 356 354 349 351 357 357 353 351 350 348 345 340 339 345 345 339 339 341 339 335 332 331 332 333 330 327 328 330 329 327 324 321 316 305 298 298 295 287 278 274
144 143 140 139 137 134 133 132 131 130 128 124 123 119 116 116 113 110 106 102 100 97 92 88 84 74 70 67 53 46 40 17 7 11 16 20 21 17 8 3 359 348 343 350 353 350 350 349 345 348 349 347 348 348 345 343 341 338 342 344 338 338 342 339 336 335 334 334 337 334 330 332 333 333 333 331 329 325 316 310 306 300 293 284 274
144 143 141 140 138 135 134 133 132 131 129 127 125 122 119 119 116 110 103 99 99 99 97 92 86 78 64 57 49 23 17 16 8 7 15 22 19 15 9 1 355 345 334 341 349 346 345 346 343 344 344 341 344 348 343 341 345 341 341 344 341 341 343 339 337 339 337 335 339 337 334 335 337 336 337 337 335 332 327 322 316 307 298 285 275
144 144 143 141 139 138 136 135 133 131 131 130 127 125 124 124 121 117 111 107 104 98 94 84 72 73 66 50 45 18 1 13 12 7 11 17 14 9 4 356 353 348 333 333 344 343 340 343 340 341 344 341 341 346 344 343 346 341 339 344 344 343 345 343 341 343 341 337 339 339 337 338 339 339 340 340 338 336 333 331 326 317 306 292 279
146 145 143 141 140 140 140 139 138 137 136 137 133 129 131 131 128 130 128 123 119 107 97 89 66 60 59 46 43 40 24 14 7 3 6 10 9 5 359 352 353 350 334 328 339 340 336 338 336 338 345 342 338 342 345 344 344 342 341 344 344 343 345 345 344 345 342 340 340 340 339 340 338 339 341 342 340 338 337 337 333 325 318 309 293
147 145 144 142 142 143 144 144 145 145 143 144 140 136 140 141 134 135 135 122 118 108 87 79 64 47 46 42 35 38 36 20 5 1 3 5 4 1 358 354 352 348 336 331 339 338 331 332 333 336 342 341 337 342 345 342 343 347 346 344 343 345 347 347 346 344 341 340 341 340 339 340 339 339 341 342 342 341 341 343 342 336 331 329 323
148 146 146 146 146 148 149 150 151 152 152 151 147 145 155 157 142 132 127 108 98 98 79 65 57 42 36 33 28 28 29 22 11 3 2 1 360 358 358 356 352 348 343 337 339 337 331 330 334 338 340 340 342 346 345 341 346 352 350 345 345 348 349 348 347 346 342 340 341 340 339 340 340 340 343 346 348 348 347 348 350 349 348 348 350
149 149 150 150 152 154 155 156 157 157 161 161 155 155 160 155 146 141 136 119 94 81 71 54 47 43 33 23 19 22 25 21 14 7 2 360 358 357 357 356 353 353 354 346 342 340 334 333 340 344 342 343 347 348 344 343 349 353 351 348 348 349 350 349 348 347 343 341 341 340 339 340 341 343 347 352 355 354 352 350 352 354 356 355 357
152 152 153 155 159 160 160 161 161 163 169 167 159 159 159 149 148 146 130 125 124 95 75 52 34 32 30 21 13 13 23 22 14 6 1 358 355 354 355 355 354 356 357 350 343 338 332 334 345 348 345 346 350 350 348 348 352 354 353 351 349 349 350 349 347 346 344 342 341 340 341 342 344 347 350 354 357 358 356 354 353 356 358 358 0
155 155 156 159 164 165 164 165 166 167 172 171 163 158 161 160 155 135 89 57 58 71 64 57 39 17 16 24 13 3 15 22 11 0 353 350 349 349 350 351 352 350 347 343 340 335 332 339 349 350 350 352 352 351 353 353 352 354 354 351 349 349 349 348 348 347 345 343 343 343 344 345 346 348 351 354 358 0 360 358 357 358 1 5 11
159 159 160 164 169 170 169 174 178 172 169 173 166 146 142 139 123 119 110 79 68 70 54 54 48 10 2 25 22 8 11 8 356 351 348 345 346 346 344 344 345 342 340 340 336 331 332 345 351 350 353 355 353 352 355 354 353 355 355 351 350 351 349 348 348 348 347 345 345 345 346 346 347 350 353 355 358 1 2 1 2 4 6 11 16
165 166 167 170 174 175 173 179 186 177 168 173 168 149 154 164 131 121 127 132 124 114 96 81 67 34 19 28 13 354 353 347 341 344 347 346 346 344 340 342 344 341 343 342 333 326 332 347 349 350 354 355 352 353 354 353 353 356 356 352 351 352 351 350 348 348 348 347 346 346 347 348 351 353 355 356 358 1 5 6 7 11 13 15 18
170 172 175 175 176 178 178 178 183 181 174 174 170 158 163 174 173 171 171 153 135 128 119 105 86 73 55 26 348 325 324 331 338 343 343 342 344 343 338 337 339 340 343 337 325 321 335 350 347 348 353 353 352 353 353 352 352 355 355 353 353 353 353 351 348 348 348 348 348 347 348 352 355 356 358 359 0 2 7 9 11 14 17 20 21
175 176 179 176 174 182 185 178 180 184 179 179 179 173 170 171 175 182 182 165 157 155 146 135 111 81 51 24 3 319 310 323 337 340 339 340 343 342 337 327 324 329 333 328 320 324 344 352 346 347 352 352 352 353 352 350 351 352 354 353 353 355 354 351 349 349 349 348 350 349 349 354 359 0 1 4 6 7 9 11 11 13 18 23 25
180 178 181 177 175 186 191 179 179 186 183 183 189 189 189 187 181 179 180 183 190 193 185 181 172 146 84 9 5 340 321 331 338 337 340 343 344 343 334 320 318 326 326 318 320 336 349 349 346 349 351 352 352 351 350 349 349 350 352 351 351 355 354 351 350 350 348 349 353 352 351 355 1 3 4 8 11 13 14 13 13 14 18 23 26
184 183 185 180 177 187 191 180 180 188 187 186 192 196 202 204 190 182 186 191 196 204 208 207 200 188 193 270 329 331 331 340 338 334 340 346 348 347 332 318 321 337 334 316 323 341 347 348 349 350 350 352 351 349 349 350 350 351 353 351 350 354 354 352 353 351 347 351 357 354 352 359 4 5 7 10 13 17 18 16 16 17 18 21 26
186 186 186 181 179 185 189 183 183 188 186 187 193 197 199 203 201 201 203 200 202 209 211 207 205 208 222 242 263 290 319 338 336 331 334 340 346 344 327 317 326 351 352 341 344 347 345 346 349 349 349 351 351 349 350 351 350 352 353 351 351 354 354 354 355 352 349 354 358 354 355 3 7 7 9 13 17 21 22 21 20 20 20 23 27
188 183 181 183 183 185 187 185 185 189 189 189 193 196 195 194 200 213 221 219 225 238 227 208 205 210 223 237 241 248 282 322 326 314 309 320 333 327 312 309 327 351 350 348 351 348 344 347 349 349 350 351 351 350 351 351 351 353 353 351 352 354 353 353 356 353 350 355 358 355 357 5 9 10 13 15 19 26 28 26 26 27 26 27 30
189 181 178 185 188 186 187 189 187 187 189 190 193 196 198 199 206 217 224 222 226 253 271 243 210 206 214 224 230 237 264 304 308 294 286 292 301 298 293 298 323 343 343 346 349 345 344 349 350 349 350 351 351 350 350 351 352 352 352 352 352 353 352 352 356 356 353 356 360 358 359 7 11 13 16 17 18 26 33 32 29 29 30 30 31
191 184 180 185 189 188 189 190 185 181 187 196 202 203 202 205 211 218 228 235 237 244 260 266 250 227 223 219 217 226 254 277 275 268 267 271 274 276 281 295 320 334 335 339 342 341 344 348 349 349 350 351 351 350 350 351 352 351 352 352 351 351 351 353 356 358 355 357 1 1 1 7 11 14 18 20 18 23 34 37 34 31 30 30 30
193 188 179 181 189 194 195 191 186 184 192 203 211 212 211 213 219 221 226 234 237 237 244 253 257 262 258 225 202 215 245 263 263 263 268 272 278 286 293 305 319 326 328 332 336 339 343 345 346 349 349 349 350 351 349 351 352 350 350 351 351 351 353 353 355 358 356 357 1 2 2 6 11 13 18 23 21 21 31 39 40 37 33 31 31
193 186 173 176 188 200 203 198 194 193 198 205 212 216 218 220 224 230 234 237 238 241 247 253 257 263 263 226 191 228 274 285 284 283 282 283 290 296 299 305 312 315 320 326 329 333 339 341 343 347 348 347 348 350 349 350 351 349 349 351 351 351 352 353 354 356 356 357 1 3 2 4 9 13 17 21 24 24 29 35 40 41 40 38 37
194 185 174 178 191 203 205 206 206 202 203 208 213 218 222 223 224 230 236 239 240 242 243 249 260 260 237 212 216 263 285 285 282 281 281 282 285 286 291 302 307 307 313 321 324 327 334 337 337 342 345 343 344 346 346 348 350 349 349 350 350 350 351 353 354 355 356 356 359 3 3 3 7 12 14 18 23 26 30 32 35 38 42 44 43
194 186 177 181 195 203 205 209 213 211 210 213 216 220 225 227 227 230 235 239 244 249 248 251 259 252 224 216 231 253 266 270 274 276 275 276 277 279 285 292 295 298 308 316 316 319 327 331 331 336 339 340 342 344 343 345 348 349 349 350 351 349 350 351 351 353 355 356 357 1 3 4 7 10 12 16 21 25 28 32 34 36 39 45 48
195 191 183 183 193 202 207 210 212 214 216 219 220 223 229 232 233 233 233 233 238 244 248 252 257 251 227 215 223 240 255 261 263 261 260 263 271 278 282 283 285 294 305 308 308 311 319 323 324 327 331 335 338 339 339 342 347 350 350 352 352 351 350 350 350 351 354 354 354 358 3 5 8 10 10 14 20 23 24 29 34 37 38 40 46
195 197 194 189 190 198 206 211 214 216 219 220 223 226 229 233 236 238 237 236 235 237 240 245 251 252 236 210 206 227 253 258 253 252 257 265 270 273 273 274 276 283 292 297 300 302 307 312 315 316 320 326 332 334 336 338 344 349 352 355 356 354 352 350 348 348 350 351 351 356 1 4 7 9 8 10 16 21 21 24 30 37 40 41 41
200 201 200 198 196 197 203 210 215 218 219 221 225 227 228 230 235 237 239 240 239 238 239 240 244 247 242 225 218 230 247 250 248 252 259 262 263 265 267 269 270 273 280 287 290 290 293 298 302 305 309 314 320 326 328 331 339 348 354 359 2 0 355 351 349 347 347 349 351 355 358 1 5 8 7 8 13 19 20 21 24 30 39 45 44
203 205 204 204 205 204 205 209 213 216 219 222 224 227 228 230 232 234 237 240 241 242 243 243 242 242 242 240 240 244 250 252 254 258 259 258 260 262 264 266 268 270 275 281 283 281 282 284 285 289 295 302 307 314 319 321 330 339 348 0 8 4 359 0 1 354 347 348 352 353 355 358 1 4 5 6 9 13 16 20 22 23 30 44 52
204 207 208 209 211 212 213 214 214 217 221 223 225 229 232 232 232 233 234 235 237 240 244 246 246 244 242 241 242 245 247 249 251 253 255 257 258 259 261 263 264 266 270 276 277 275 276 278 276 276 282 287 292 298 304 310 317 325 335 356 5 359 359 7 9 1 353 355 356 352 353 357 359 359 2 4 6 8 9 13 21 24 24 31 47
208 207 210 214 216 217 218 219 219 221 224 227 229 232 234 236 238 238 237 235 235 236 239 242 246 247 247 245 244 244 245 247 248 250 254 256 256 258 262 263 262 263 267 272 274 273 272 272 270 270 273 276 278 282 288 292 300 308 312 323 337 343 351 4 8 5 5 7 2 353 352 357 357 356 358 360 2 5 5 4 11 23 25 20 23
215 214 214 216 220 223 224 223 223 224 225 228 231 233 234 236 238 239 240 241 239 238 238 239 241 243 246 247 247 246 246 247 248 249 251 255 259 263 266 265 265 266 269 271 272 271 268 266 264 263 263 263 266 273 276 276 282 289 282 281 306 327 342 354 360 2 7 12 9 359 354 354 354 355 357 358 359 2 3 358 358 12 28 21 11
220 221 222 222 222 225 227 228 228 228 228 229 231 233 234 235 237 238 240 242 243 244 243 242 242 242 243 245 246 247 247 247 248 249 250 254 260 263 263 264 266 268 268 269 268 266 266 266 263 260 257 255 257 262 264 266 270 269 257 263 290 314 328 339 348 354 360 7 10 2 355 354 355 354 356 358 357 359 1 357 353 1 19 26 16
218 222 225 228 228 228 228 229 231 232 232 231 232 234 235 236 236 237 238 239 241 244 245 244 244 244 245 245 247 247 248 248 250 252 254 259 264 266 267 270 273 274 275 274 270 264 262 262 260 258 256 253 251 253 255 259 262 258 252 261 282 301 309 316 331 344 349 358 5 358 349 351 355 354 354 358 358 355 354 353 352 356 7 16 19
Height
844 846 846 848 849 850 851 852 853 854 854 855 855 856 857 858 859 859 860 860 860 860 860 860 859 859 858 857 856 855 854 853 852 851 850 849 848 848 847 845 844 843 842 841 840 840 838 837 836 835 834 833 831 829 828 826 824 822 820 817 815 812 809 806 800 792 788 786 782 777 773 769 765 762 759 755 752 750 748 746 745 743 743 743 741
845 846 847 849 850 851 852 853 854 855 855 856 856 857 858 859 860 860 861 861 861 861 861 861 860 860 859 858 857 856 855 854 853 852 851 850 849 848 847 846 845 844 843 842 841 840 839 838 837 836 835 833 832 831 829 827 825 823 821 818 815 813 810 807 802 795 788 784 781 777 773 770 765 761 759 754 750 747 745 743 741 739 738 738 738
846 847 848 850 851 852 853 854 855 855 856 857 858 859 860 860 861 862 862 862 862 862 862 861 861 860 860 859 858 857 856 855 854 853 852 851 850 849 848 847 846 845 844 843 842 841 840 839 837 836 835 834 833 832 830 829 827 824 821 819 816 813 811 808 803 797 790 784 780 777 772 769 765 760 757 753 749 746 742 739 737 735 734 733 734
847 848 849 851 852 853 854 855 856 857 857 858 859 860 861 862 862 863 863 863 863 863 863 862 862 861 861 860 859 858 857 856 855 854 853 852 851 850 848 847 846 845 844 843 842 842 840 839 838 837 836 835 834 833 831 829 827 825 822 819 816 813 810 807 804 799 792 785 780 777 773 768 764 760 756 751 748 744 741 737 734 732 731 730 730
848 849 850 852 853 854 855 856 857 858 858 860 860 861 862 862 863 864 864 864 864 863 863 863 862 862 861 861 860 859 858 857 856 854 853 852 851 850 849 848 847 846 845 844 843 842 841 840 839 838 837 836 835 833 832 830 827 825 822 819 815 812 809 806 803 799 793 786 779 776 772 768 762 758 755 751 746 742 738 735 732 729 727 726 725
848 849 851 852 854 855 856 857 858 859 860 860 861 862 863 863 864 864 864 864 864 864 864 863 863 863 863 862 861 860 859 858 856 854 853 852 851 850 849 848 847 847 846 845 844 843 842 841 840 839 838 837 836 834 832 830 827 824 821 818 814 811 808 804 801 797 793 787 781 775 771 768 762 757 754 751 747 742 737 732 729 727 725 723 722
848 850 852 853 854 855 857 858 859 859 860 861 862 863 864 864 865 865 865 865 865 864 864 864 864 864 863 863 862 861 860 858 856 854 853 852 851 851 850 849 848 847 846 845 845 844 843 842 841 840 840 838 837 835 832 830 827 824 820 817 813 810 807 803 800 796 792 787 781 776 771 767 763 758 754 751 748 743 738 733 728 725 723 722 719
848 850 852 853 855 856 857 859 859 860 861 862 863 864 864 865 865 865 866 865 865 865 865 865 865 865 864 864 863 862 860 858 856 854 853 852 852 851 850 850 848 848 847 846 845 844 843 842 842 841 840 839 837 835 833 830 827 823 820 816 813 809 806 802 799 795 791 786 781 776 771 767 764 759 754 751 747 743 740 737 731 726 723 720 717
848 851 852 854 856 857 858 859 860 861 862 862 864 864 865 866 866 866 866 866 866 866 866 866 866 866 865 865 864 862 861 859 857 856 854 853 852 852 851 850 849 848 847 846 845 844 844 843 842 841 840 838 837 834 832 830 827 823 819 815 812 809 805 802 798 794 790 785 781 776 771 767 764 760 755 752 748 744 741 738 733 728 724 719 715
849 851 853 854 856 857 859 860 861 862 862 863 864 865 866 866 866 867 867 867 867 867 867 867 866 866 866 865 865 863 862 860 859 857 856 854 853 852 852 851 850 849 848 847 845 844 844 843 842 841 839 837 835 833 830 828 825 822 819 815 812 808 804 801 797 793 789 785 781 776 771 767 764 761 756 752 749 746 741 738 733 729 726 720 713
849 851 853 855 857 858 859 860 861 863 863 864 865 865 866 867 867 868 868 868 868 868 868 868 867 867 867 867 866 865 864 862 860 859 857 855 854 853 852 852 850 849 848 847 846 845 844 843 841 840 838 836 834 831 829 826 822 819 817 814 811 808 804 800 796 793 789 785 780 776 771 766 762 760 756 751 748 745 741 738 735 731 728 723 715
849 852 853 855 857 858 860 861 862 863 864 865 866 866 867 868 868 869 869 869 869 868 868 868 868 868 868 868 868 867 866 864 862 860 858 856 855 853 853 852 851 850 849 847 846 845 844 843 841 839 837 835 833 830 827 823 820 817 814 811 809 806 803 800 796 792 788 784 779 775 771 765 760 758 756 751 747 744 741 738 736 733 728 724 717
850 852 853 855 857 858 860 861 863 864 864 866 867 867 868 868 869 869 869 870 870 869 869 869 869 869 869 869 869 868 867 865 863 861 859 857 856 854 853 853 851 850 849 847 846 845 844 843 841 839 837 835 833 830 826 822 818 815 812 809 807 803 800 798 795 791 788 783 778 774 770 765 760 756 754 751 747 743 739 736 734 731 727 722 717
850 852 854 855 857 859 860 862 863 864 865 866 867 868 869 869 870 870 870 870 870 870 870 870 870 870 870 870 870 870 868 866 864 862 860 858 856 854 853 853 852 850 849 847 846 845 844 843 841 839 837 835 833 830 826 821 817 814 811 808 805 801 797 794 792 789 786 782 778 773 768 765 759 754 751 749 745 741 737 733 730 728 724 719 715
850 852 854 856 857 859 861 862 864 865 866 867 868 868 869 869 870 870 870 871 871 871 871 871 871 871 871 871 871 870 869 867 865 863 861 859 856 854 854 853 851 850 849 847 846 844 843 843 841 839 837 835 833 830 826 822 818 814 811 808 804 800 796 793 790 787 783 780 776 771 766 762 757 752 748 745 742 738 734 730 726 723 720 715 710
850 852 854 856 858 859 861 863 864 865 867 867 868 869 870 870 870 871 871 871 871 871 872 872 872 872 872 871 871 871 870 868 866 863 861 859 856 855 855 853 851 850 849 847 845 844 843 842 841 839 837 836 833 829 826 822 818 815 811 807 803 799 795 791 788 784 781 777 773 769 763 758 753 748 744 740 736 733 729 725 721 719 716 710 704
850 852 854 856 858 860 862 863 865 866 867 868 869 869 870 870 871 871 871 872 872 872 872 872 873 873 872 872 871 871 870 868 866 864 862 860 857 856 855 854 852 850 848 847 845 843 842 841 840 839 837 835 833 829 826 822 819 815 811 807 803 798 793 789 784 780 777 773 770 765 760 755 750 744 739 735 732 729 725 720 717 715 712 706 700
850 852 854 857 858 860 862 864 865 866 867 868 869 870 870 871 871 871 872 872 872 872 872 873 873 873 873 872 872 871 870 869 867 865 863 861 859 857 856 855 853 851 848 846 845 843 841 840 839 838 837 835 832 828 825 822 819 815 811 807 803 797 792 787 781 777 773 770 766 762 757 752 746 740 735 731 727 725 722 717 713 711 708 703 698
850 852 855 857 859 861 863 864 865 867 868 869 869 870 870 871 871 871 872 872 872 872 872 873 873 873 873 872 872 871 871 869 868 866 864 862 860 858 857 856 854 852 849 846 845 843 842 840 838 837 836 835 832 828 825 822 819 815 811 807 802 797 791 786 781 776 772 767 763 759 753 749 743 737 732 727 723 721 718 714 711 708 704 700 695
850 853 855 857 860 861 863 865 866 867 868 869 869 870 871 871 872 872 871 872 872 872 873 873 873 873 873 872 872 871 871 869 868 866 865 863 861 859 858 857 855 853 850 847 845 843 842 840 838 837 836 834 831 827 824 822 818 815 811 807 802 797 791 785 781 777 772 767 762 756 751 745 740 734 729 724 719 717 714 711 708 705 701 697 693
850 853 855 857 860 862 863 865 866 867 869 869 870 871 871 872 872 872 872 872 872 872 872 872 872 872 872 872 871 871 871 870 869 867 865 864 862 860 859 858 856 854 851 848 845 843 842 840 839 838 836 833 830 826 823 820 817 814 811 807 803 797 792 786 781 777 773 767 761 755 749 743 737 731 726 721 717 713 709 706 703 700 697 693 689
850 853 855 858 860 862 864 866 866 868 869 869 870 871 871 872 872 872 872 872 872 872 872 872 872 872 871 871 871 870 870 869 869 867 865 864 862 861 860 859 857 855 853 849 846 844 843 841 840 838 835 832 829 825 822 819 816 814 811 807 802 797 792 787 782 777 773 767 761 754 748 741 734 728 722 718 714 709 705 702 698 695 692 689 685
850 852 855 858 860 862 864 865 866 868 868 869 870 871 871 872 872 872 872 872 871 872 872 871 871 871 870 871 871 870 870 869 868 867 865 864 862 861 860 859 857 855 853 850 848 846 844 842 840 837 834 830 827 824 821 818 816 813 809 805 800 796 792 787 783 778 774 768 761 755 748 741 734 727 722 717 712 707 703 699 694 690 687 683 681
850 852 855 858 860 862 864 865 867 867 868 869 870 871 871 872 872 871 871 871 871 871 871 871 870 870 870 870 870 870 870 869 868 867 865 864 863 861 860 858 857 855 853 851 849 847 845 842 839 836 833 830 826 824 821 818 815 812 808 804 800 795 791 786 782 779 774 768 762 756 749 742 735 729 723 718 712 707 702 697 692 688 684 680 677
850 852 855 857 860 862 864 865 866 867 868 869 869 870 871 871 871 871 870 870 870 870 870 870 870 870 870 870 870 870 870 870 869 867 866 865 863 861 860 858 857 855 853 851 849 847 844 841 838 835 833 830 826 824 821 817 814 811 808 804 799 795 791 787 782 778 774 769 763 757 750 743 737 731 726 720 713 706 700 695 690 685 681 678 675
850 853 855 857 860 862 863 865 866 867 868 868 868 870 870 870 870 870 870 870 870 870 870 870 870 870 870 870 870 869 869 869 869 868 867 865 863 862 860 858 856 854 852 850 849 846 842 839 837 835 832 829 826 823 820 816 813 810 807 804 799 795 792 788 783 779 775 770 765 759 752 745 738 732 726 720 713 707 701 696 691 686 681 678 675
850 852 855 857 859 861 862 864 865 866 867 867 868 869 869 869 869 869 869 870 870 870 870 870 870 870 870 870 870 869 869 869 869 868 867 866 864 862 860 858 856 854 852 850 848 844 840 838 837 835 832 829 826 823 820 816 813 810 807 804 800 796 792 789 785 781 777 772 767 761 754 747 740 733 727 721 715 710 704 699 694 689 685 680 676
850 852 855 857 859 860 862 863 864 865 865 866 867 868 868 868 869 869 870 870 870 870 870 870 871 871 870 870 870 869 869 869 869 869 868 866 864 863 861 859 857 854 852 850 847 843 840 838 836 834 831 828 825 822 819 816 813 810 808 805 801 797 793 789 785 782 778 773 768 762 755 748 741 735 729 723 718 713 708 703 698 693 688 683 678
850 852 854 856 858 859 861 862 863 863 864 865 866 866 867 868 868 869 870 871 871 871 871 871 872 871 871 871 871 870 870 870 869 869 867 866 865 863 861 859 857 854 852 849 847 844 841 838 836 833 830 828 825 822 819 817 813 811 808 805 802 798 794 789 785 782 778 774 769 763 757 750 744 738 732 726 721 717 712 707 702 697 692 687 682
850 852 853 855 857 858 859 861 861 861 863 864 864 866 867 868 869 870 870 871 871 872 872 872 872 872 871 871 871 871 871 870 869 868 867 866 864 863 861 859 857 854 852 849 846 844 841 839 836 833 830 828 826 823 820 817 814 811 808 806 802 798 795 792 787 784 780 776 771 765 760 754 747 741 735 729 724 720 715 710 706 701 696 692 688
849 851 852 853 855 856 857 859 859 860 861 862 863 865 867 868 869 870 870 871 871 872 872 872 872 872 871 871 871 871 870 869 868 867 866 865 864 862 861 859 856 853 851 849 846 843 841 839 836 833 831 829 826 824 822 819 816 813 810 807 803 799 797 793 789 786 782 778 773 768 763 757 751 745 740 735 729 724 718 713 708 705 701 698 695
847 849 850 852 854 855 856 857 858 858 859 860 862 863 865 867 868 869 869 870 870 870 871 871 871 871 871 870 870 870 869 868 867 866 865 864 863 861 859 857 855 853 851 849 847 844 841 839 837 834 832 830 827 825 823 820 818 814 812 809 805 801 799 795 791 788 784 779 775 770 765 760 755 750 745 740 735 729 723 718 714 711 708 704 701
846 847 849 851 853 854 854 855 856 857 858 859 860 861 862 863 865 866 868 868 869 869 869 869 869 869 869 869 869 869 868 867 866 865 864 863 862 860 858 856 854 851 850 848 847 844 842 840 838 835 833 831 829 827 824 822 819 816 814 811 807 804 801 798 794 790 786 782 778 772 767 763 758 753 748 744 739 734 729 725 722 718 714 711 708
845 847 848 849 851 853 853 853 855 856 856 858 859 859 860 860 861 863 865 866 867 867 867 867 867 867 867 867 867 867 866 866 865 864 864 862 861 859 857 854 852 850 849 848 847 845 842 840 838 836 834 832 830 828 825 823 820 817 815 813 809 806 804 800 796 792 788 784 780 775 770 766 761 757 752 748 744 740 735 731 727 723 720 718 716
844 845 847 848 850 851 851 852 853 854 855 856 857 858 859 859 860 861 861 862 863 863 863 864 864 865 865 865 865 865 865 865 864 863 862 861 860 858 856 853 851 850 849 848 847 845 843 841 839 837 835 833 831 829 826 824 822 819 817 814 811 808 806 802 799 795 791 787 783 779 774 770 766 761 757 753 750 746 742 738 735 732 729 726 724
842 844 846 847 848 849 850 851 852 853 854 855 856 857 858 858 860 860 860 860 861 860 860 860 861 861 862 863 863 863 863 863 862 862 861 860 859 858 856 853 851 850 849 848 847 845 843 841 840 838 836 834 832 830 828 826 823 821 819 816 813 811 808 805 802 799 794 791 787 782 778 774 770 766 762 758 755 753 750 746 743 740 737 734 732
841 842 844 846 847 847 849 850 850 852 853 854 855 856 856 857 858 859 859 859 859 859 859 859 859 860 860 860 861 861 861 861 860 860 859 859 858 857 855 853 851 850 849 848 847 846 844 842 841 839 837 835 834 831 829 827 825 823 821 818 815 813 810 807 804 801 797 794 790 786 781 777 774 770 766 763 760 758 755 753 749 746 744 741 740
839 840 842 844 845 846 847 848 849 851 852 853 854 854 855 856 857 857 857 857 858 858 859 858 858 858 858 857 858 859 859 859 858 858 857 857 856 855 854 852 851 850 849 848 847 846 844 842 841 840 838 836 835 833 831 829 826 824 822 820 817 815 812 809 806 803 800 796 793 790 786 781 778 775 771 768 765 763 761 758 756 753 750 748 747
838 838 840 842 844 845 846 847 848 850 852 852 853 853 854 854 855 855 856 856 856 857 857 857 856 856 856 855 856 857 857 857 856 856 855 855 854 854 853 852 851 850 849 848 847 845 844 843 842 840 839 837 835 834 832 830 828 826 824 821 819 816 814 811 808 805 802 799 796 793 789 786 782 779 776 773 771 768 766 764 762 760 758 756 754
836 837 839 841 843 844 845 845 847 848 850 851 851 852 852 853 853 854 854 854 854 855 855 855 855 854 854 855 855 856 857 856 856 855 854 853 853 853 852 851 850 849 848 848 846 845 844 843 842 841 839 838 836 835 833 831 829 827 825 823 821 818 816 813 811 808 805 802 799 796 793 790 787 783 780 778 775 773 771 769 768 766 764 763 761
834 836 838 840 842 843 844 844 845 846 847 849 849 850 850 851 852 852 853 853 853 853 853 853 853 853 852 853 854 855 856 856 855 854 853 852 852 851 850 850 849 848 848 847 846 845 844 843 842 841 840 838 837 835 834 832 830 828 827 825 822 820 818 815 813 811 808 805 802 800 797 794 791 788 785 783 780 778 776 774 773 771 770 769 767
832 834 836 838 841 842 842 843 844 844 845 846 847 848 848 849 849 850 851 851 851 851 851 852 852 851 850 851 852 854 855 855 854 853 851 851 850 850 849 849 848 847 847 846 845 845 844 843 842 841 840 838 837 835 834 833 831 829 828 826 824 822 820 817 815 813 810 808 805 803 800 798 795 792 790 788 785 783 781 779 777 776 774 773 772
830 832 833 836 838 839 840 841 842 843 844 844 845 846 847 847 847 848 848 849 849 850 850 850 850 850 849 849 850 851 852 852 852 851 850 849 848 848 848 848 847 846 846 846 845 844 844 843 842 841 840 838 837 836 834 833 831 830 829 827 825 823 821 819 817 815 812 810 808 805 803 801 798 796 794 792 789 787 785 783 781 780 778 777 776
829 830 831 833 835 837 838 839 840 841 841 842 843 844 845 845 846 845 846 846 847 847 848 848 848 848 848 847 848 849 850 849 849 848 847 847 847 847 846 846 845 845 845 845 844 843 843 842 841 841 839 838 837 836 834 833 832 830 829 828 826 824 823 821 819 817 814 812 810 808 805 803 802 799 797 795 793 791 789 787 785 784 782 781 780
827 828 829 830 832 834 835 837 838 838 839 840 841 842 842 843 843 843 844 844 844 844 845 845 845 846 846 846 846 846 846 846 846 845 845 845 845 845 845 844 844 844 844 843 843 842 842 841 841 840 839 838 837 836 834 833 832 831 829 828 827 825 824 822 820 818 816 814 812 810 808 806 804 802 801 798 797 795 793 791 789 787 786 785 784
825 826 827 828 829 831 832 834 835 836 837 838 838 839 839 840 840 841 841 841 841 842 842 842 842 843 843 843 843 843 843 843 843 843 843 843 843 843 843 843 842 842 842 842 842 841 840 840 839 839 838 837 836 835 834 833 832 831 830 829 828 826 825 823 820 819 818 816 813 812 811 808 807 805 803 801 800 798 796 794 793 791 789 788 787
823 824 825 826 827 828 830 831 832 833 834 835 835 836 836 836 837 837 838 838 839 840 840 840 840 840 840 840 840 840 840 841 841 841 841 841 841 841 841 841 841 841 841 841 840 839 839 838 838 837 837 836 835 834 833 832 831 830 829 828 827 826 825 823 821 819 818 816 815 814 812 810 809 807 805 804 802 801 799 797 795 794 792 790 789
820 822 823 824 825 826 827 828 829 830 831 832 832 833 833 834 834 834 835 835 836 837 837 837 837 837 837 837 837 837 837 838 838 838 838 838 838 839 839 838 839 839 839 839 839 838 837 837 836 835 835 834 834 833 832 831 830 830 829 828 827 826 825 823 822 820 819 817 815 814 814 812 810 809 807 806 804 803 801 799 797 796 795 793 791
819 819 820 822 823 824 824 825 826 827 828 829 829 830 831 831 831 832 832 832 832 833 833 833 834 834 834 834 834 834 834 835 835 835 836 836 836 836 836 836 836 835 835 836 837 836 835 835 834 833 833 832 832 831 831 830 829 829 828 827 826 825 824 823 822 821 819 817 816 815 814 813 811 810 809 807 806 804 803 801 799 798 797 795 794
817 818 818 819 820 821 822 823 823 824 824 825 826 826 827 828 828 829 829 829 829 829 830 830 830 831 831 831 831 831 831 831 832 832 832 832 832 832 833 833 832 832 832 832 834 834 833 832 832 831 830 830 830 829 829 828 828 827 826 825 824 824 824 823 822 821 819 818 817 816 815 814 812 811 810 808 807 806 805 803 801 799 798 797 796
815 816 817 817 818 819 820 820 820 821 821 822 822 823 824 824 825 825 826 826 826 826 826 826 827 827 827 827 828 828 828 828 829 829 829 829 829 828 828 829 829 829 829 829 829 831 831 830 829 829 828 827 827 827 826 826 826 825 824 824 823 823 823 822 821 820 819 818 817 816 815 814 813 812 810 809 808 807 806 804 803 801 800 798 798